This is the latest recevied weather packets stored in our database for station/object KK7ISX. If no packets are shown the sender has not sent any weather packets the latest 1 day(s).
| Time | Temp. | Humidity | Pressure | Rain* | Wind** | Luminosity | Snow |
|---|---|---|---|---|---|---|---|
| 1778006811 | 21.11° C | 39% | 1010.8 hPa | 0 mm | 2.24 m/s, 287° | 762 W/m² | - |
| 1778006508 | 21.11° C | 38% | 1010.7 hPa | 0 mm | 1.79 m/s, 293° | 762 W/m² | - |
| 1778006205 | 21.11° C | 37% | 1010.9 hPa | 0 mm | 0.45 m/s, 242° | 759 W/m² | - |
| 1778005903 | 20.56° C | 38% | 1011 hPa | 0 mm | 3.58 m/s, 286° | 758 W/m² | - |
| 1778005598 | 20.56° C | 39% | 1011 hPa | 0 mm | 1.79 m/s, 340° | 754 W/m² | - |
| 1778005296 | 21.11° C | 39% | 1010.9 hPa | 0 mm | 1.79 m/s, 311° | 752 W/m² | - |
| 1778004992 | 21.11° C | 38% | 1011 hPa | 0 mm | 2.24 m/s, 290° | 747 W/m² | - |
| 1778004690 | 21.11° C | 38% | 1010.8 hPa | 0 mm | 1.34 m/s, 262° | 744 W/m² | - |
| 1778004385 | 21.67° C | 37% | 1010.9 hPa | 0 mm | 0.45 m/s, 235° | 740 W/m² | - |
| 1778004083 | 20.56° C | 40% | 1010.9 hPa | 0 mm | 0.45 m/s, 249° | 734 W/m² | - |
| 1778003779 | 20.56° C | 38% | 1011.1 hPa | 0 mm | 0 m/s | 726 W/m² | - |
| 1778003476 | 20.56° C | 40% | 1010.9 hPa | 0 mm | 3.58 m/s, 336° | 718 W/m² | - |
| 1778003172 | 20.56° C | 40% | 1011 hPa | 0 mm | 0.89 m/s, 297° | 709 W/m² | - |
| 1778002868 | 20° C | 41% | 1010.8 hPa | 0 mm | 4.02 m/s, 301° | 698 W/m² | - |
| 1778002565 | 20° C | 40% | 1011 hPa | 0 mm | 2.68 m/s, 219° | 690 W/m² | - |
| 1778002262 | 20.56° C | 40% | 1010.9 hPa | 0 mm | 0 m/s | 680 W/m² | - |
| 1778001960 | 20° C | 39% | 1011 hPa | 0 mm | 1.79 m/s, 346° | 671 W/m² | - |
| 1778001656 | 21.11° C | 38% | 1011 hPa | 0 mm | 1.79 m/s, 273° | 659 W/m² | - |
| 1778001351 | 20.56° C | 40% | 1011.1 hPa | 0 mm | 0 m/s | 648 W/m² | - |
| 1778001048 | 20° C | 39% | 1011 hPa | 0 mm | 0 m/s | 637 W/m² | - |
| 1778000744 | 20° C | 40% | 1011 hPa | 0 mm | 0.45 m/s, 195° | 624 W/m² | - |
| 1778000441 | 20° C | 40% | 1010.9 hPa | 0 mm | 0.45 m/s, 183° | 612 W/m² | - |
| 1778000136 | 20° C | 40% | 1010.7 hPa | 0 mm | 2.24 m/s, 264° | 598 W/m² | - |
| 1777999832 | 20° C | 40% | 1010.8 hPa | 0 mm | 0.89 m/s, 252° | 585 W/m² | - |
| 1777999528 | 18.89° C | 40% | 1010.8 hPa | 0 mm | 0.45 m/s, 266° | 571 W/m² | - |
* Rain latest hour (hover to see other rain measurements)
** Current wind speed in m/s (hover to see current wind gust speed)